owner,sensor,date,latitude,longitude,vertical_datum,sea_water_practical_salinity,qcFlag 
SCCF RECON,ioos:station:SCCF:51:1,2009-07-01T00:00:00Z,26.5545,-82.1715,1.848,36.39,1111122 
SCCF RECON,ioos:station:SCCF:51:1,2009-07-01T01:00:00Z,26.5545,-82.1715,1.919,36.38,1111122 
SCCF RECON,ioos:station:SCCF:51:1,2009-07-01T02:00:00Z,26.5545,-82.1715,1.891,36.4,1111122 
SCCF RECON,ioos:station:SCCF:51:1,2009-07-01T03:00:00Z,26.5545,-82.1715,1.873,36.39,1111122 
SCCF RECON,ioos:station:SCCF:51:1,2009-07-01T04:00:00Z,26.5545,-82.1715,1.862,36.41,1111122 
SCCF RECON,ioos:station:SCCF:51:1,2009-07-01T05:00:00Z,26.5545,-82.1715,1.873,36.43,1111122 
SCCF RECON,ioos:station:SCCF:51:1,2009-07-01T06:00:00Z,26.5545,-82.1715,1.881,36.43,1111122 
SCCF RECON,ioos:station:SCCF:51:1,2009-07-01T07:00:00Z,26.5545,-82.1715,1.866,36.46,1111122 
SCCF RECON,ioos:station:SCCF:51:1,2009-07-01T08:00:00Z,26.5545,-82.1715,1.89,36.42,1111122 
SCCF RECON,ioos:station:SCCF:51:1,2009-07-01T09:00:00Z,26.5545,-82.1715,1.944,36.41,1111122 
SCCF RECON,ioos:station:SCCF:51:1,2009-07-01T10:00:00Z,26.5545,-82.1715,2.012,36.39,1111122 
SCCF RECON,ioos:station:SCCF:51:1,2009-07-01T11:00:00Z,26.5545,-82.1715,2.062,36.32,1111122 
SCCF RECON,ioos:station:SCCF:51:1,2009-07-01T12:00:00Z,26.5545,-82.1715,2.119,36.29,1111122 
SCCF RECON,ioos:station:SCCF:51:1,2009-07-01T13:00:00Z,26.5545,-82.1715,2.158,36.32,1111122 
SCCF RECON,ioos:station:SCCF:51:1,2009-07-01T14:00:00Z,26.5545,-82.1715,2.145,36.32,1111122 
SCCF RECON,ioos:station:SCCF:51:1,2009-07-01T15:00:00Z,26.5545,-82.1715,2.094,36.4,1111122 
SCCF RECON,ioos:station:SCCF:51:1,2009-07-01T16:00:00Z,26.5545,-82.1715,2.007,36.51,1111122 
SCCF RECON,ioos:station:SCCF:51:1,2009-07-01T17:00:00Z,26.5545,-82.1715,1.897,36.47,1111122 
SCCF RECON,ioos:station:SCCF:51:1,2009-07-01T18:00:00Z,26.5545,-82.1715,1.769,36.41,1111122 
SCCF RECON,ioos:station:SCCF:51:1,2009-07-01T19:00:00Z,26.5545,-82.1715,1.665,36.39,1111122 
SCCF RECON,ioos:station:SCCF:51:1,2009-07-01T20:00:00Z,26.5545,-82.1715,1.609,36.41,1111122 
SCCF RECON,ioos:station:SCCF:51:1,2009-07-01T21:00:00Z,26.5545,-82.1715,1.592,36.44,1111122 
SCCF RECON,ioos:station:SCCF:51:1,2009-07-01T22:00:00Z,26.5545,-82.1715,1.644,36.51,1111122 
SCCF RECON,ioos:station:SCCF:51:1,2009-07-01T23:00:00Z,26.5545,-82.1715,1.777,36.57,1111122 
SCCF RECON,ioos:station:SCCF:51:1,2009-07-02T00:00:00Z,26.5545,-82.1715,1.836,36.4,1111122 
SCCF RECON,ioos:station:SCCF:51:1,2009-07-02T01:00:00Z,26.5545,-82.1715,1.856,36.48,1111122 
SCCF RECON,ioos:station:SCCF:51:1,2009-07-02T02:00:00Z,26.5545,-82.1715,1.853,36.47,1111122 
SCCF RECON,ioos:station:SCCF:51:1,2009-07-02T03:00:00Z,26.5545,-82.1715,1.844,36.47,1111122 
SCCF RECON,ioos:station:SCCF:51:1,2009-07-02T04:00:00Z,26.5545,-82.1715,1.863,36.4,1111122 
SCCF RECON,ioos:station:SCCF:51:1,2009-07-02T05:00:00Z,26.5545,-82.1715,1.914,36.34,1111122 
SCCF RECON,ioos:station:SCCF:51:1,2009-07-02T06:00:00Z,26.5545,-82.1715,1.955,36.34,1111122 
SCCF RECON,ioos:station:SCCF:51:1,2009-07-02T07:00:00Z,26.5545,-82.1715,1.985,36.31,1111122 
SCCF RECON,ioos:station:SCCF:51:1,2009-07-02T08:00:00Z,26.5545,-82.1715,1.994,36.33,1111122 
SCCF RECON,ioos:station:SCCF:51:1,2009-07-02T09:00:00Z,26.5545,-82.1715,2.009,36.3,1111122 
SCCF RECON,ioos:station:SCCF:51:1,2009-07-02T10:00:00Z,26.5545,-82.1715,2.039,36.27,1111122 
SCCF RECON,ioos:station:SCCF:51:1,2009-07-02T11:00:00Z,26.5545,-82.1715,2.092,36.32,1111122 
SCCF RECON,ioos:station:SCCF:51:1,2009-07-02T12:00:00Z,26.5545,-82.1715,2.131,36.26,1111122 
SCCF RECON,ioos:station:SCCF:51:1,2009-07-02T13:00:00Z,26.5545,-82.1715,2.179,36.32,1111122 
SCCF RECON,ioos:station:SCCF:51:1,2009-07-02T14:00:00Z,26.5545,-82.1715,2.188,36.31,1111122 
SCCF RECON,ioos:station:SCCF:51:1,2009-07-02T15:00:00Z,26.5545,-82.1715,2.158,36.28,1111122 
SCCF RECON,ioos:station:SCCF:51:1,2009-07-02T16:00:00Z,26.5545,-82.1715,2.073,36.37,1111122 
SCCF RECON,ioos:station:SCCF:51:1,2009-07-02T17:00:00Z,26.5545,-82.1715,1.97,36.49,1111122 
SCCF RECON,ioos:station:SCCF:51:1,2009-07-02T18:00:00Z,26.5545,-82.1715,1.851,36.51,1111122 
SCCF RECON,ioos:station:SCCF:51:1,2009-07-02T19:00:00Z,26.5545,-82.1715,1.764,36.53,1111122 
SCCF RECON,ioos:station:SCCF:51:1,2009-07-02T20:00:00Z,26.5545,-82.1715,1.646,36.51,1111122 
SCCF RECON,ioos:station:SCCF:51:1,2009-07-02T21:00:00Z,26.5545,-82.1715,1.57,36.46,1111122 
SCCF RECON,ioos:station:SCCF:51:1,2009-07-02T22:00:00Z,26.5545,-82.1715,1.549,36.48,1111122 
SCCF RECON,ioos:station:SCCF:51:1,2009-07-02T23:00:00Z,26.5545,-82.1715,1.578,36.6,1111122 
SCCF RECON,ioos:station:SCCF:51:1,2009-07-03T00:00:00Z,26.5545,-82.1715,1.648,36.57,1111122 
SCCF RECON,ioos:station:SCCF:51:1,2009-07-03T01:00:00Z,26.5545,-82.1715,1.72,36.52,1111122 
SCCF RECON,ioos:station:SCCF:51:1,2009-07-03T02:00:00Z,26.5545,-82.1715,1.781,36.4,1111122 
SCCF RECON,ioos:station:SCCF:51:1,2009-07-03T03:00:00Z,26.5545,-82.1715,1.807,36.34,1111122 
SCCF RECON,ioos:station:SCCF:51:1,2009-07-03T04:00:00Z,26.5545,-82.1715,1.869,36.47,1111122 
SCCF RECON,ioos:station:SCCF:51:1,2009-07-03T05:00:00Z,26.5545,-82.1715,1.917,36.45,1111122 
SCCF RECON,ioos:station:SCCF:51:1,2009-07-03T06:00:00Z,26.5545,-82.1715,1.921,36.47,1111122 
SCCF RECON,ioos:station:SCCF:51:1,2009-07-03T07:00:00Z,26.5545,-82.1715,1.903,36.52,1111122 
SCCF RECON,ioos:station:SCCF:51:1,2009-07-03T08:00:00Z,26.5545,-82.1715,1.896,36.59,1111122 
SCCF RECON,ioos:station:SCCF:51:1,2009-07-03T09:00:00Z,26.5545,-82.1715,1.926,36.56,1111122 
SCCF RECON,ioos:station:SCCF:51:1,2009-07-03T10:00:00Z,26.5545,-82.1715,1.973,36.51,1111122 
SCCF RECON,ioos:station:SCCF:51:1,2009-07-03T11:00:00Z,26.5545,-82.1715,2.041,36.4,1111122 
SCCF RECON,ioos:station:SCCF:51:1,2009-07-03T12:00:00Z,26.5545,-82.1715,2.121,36.4,1111122 
SCCF RECON,ioos:station:SCCF:51:1,2009-07-03T13:00:00Z,26.5545,-82.1715,2.158,36.38,1111122 
SCCF RECON,ioos:station:SCCF:51:1,2009-07-03T14:00:00Z,26.5545,-82.1715,2.146,36.38,1111122 
SCCF RECON,ioos:station:SCCF:51:1,2009-07-03T15:00:00Z,26.5545,-82.1715,2.121,36.4,1111122 
SCCF RECON,ioos:station:SCCF:51:1,2009-07-03T16:00:00Z,26.5545,-82.1715,2.066,36.42,1111122 
SCCF RECON,ioos:station:SCCF:51:1,2009-07-03T17:00:00Z,26.5545,-82.1715,1.986,36.5,1111122 
SCCF RECON,ioos:station:SCCF:51:1,2009-07-03T18:00:00Z,26.5545,-82.1715,1.887,36.57,1111122 
SCCF RECON,ioos:station:SCCF:51:1,2009-07-03T19:00:00Z,26.5545,-82.1715,1.778,36.61,1111122 
SCCF RECON,ioos:station:SCCF:51:1,2009-07-03T20:00:00Z,26.5545,-82.1715,1.661,36.62,1111122 
SCCF RECON,ioos:station:SCCF:51:1,2009-07-03T21:00:00Z,26.5545,-82.1715,1.546,36.64,1111122 
SCCF RECON,ioos:station:SCCF:51:1,2009-07-03T22:00:00Z,26.5545,-82.1715,1.463,36.63,1111122 
SCCF RECON,ioos:station:SCCF:51:1,2009-07-03T23:00:00Z,26.5545,-82.1715,1.445,36.65,1111122 
SCCF RECON,ioos:station:SCCF:51:1,2009-07-04T00:00:00Z,26.5545,-82.1715,1.499,36.72,1111122 
SCCF RECON,ioos:station:SCCF:51:1,2009-07-04T01:00:00Z,26.5545,-82.1715,1.587,36.63,1111122 
SCCF RECON,ioos:station:SCCF:51:1,2009-07-04T02:00:00Z,26.5545,-82.1715,1.695,36.44,1111122 
SCCF RECON,ioos:station:SCCF:51:1,2009-07-04T03:00:00Z,26.5545,-82.1715,1.791,36.43,1111122 
SCCF RECON,ioos:station:SCCF:51:1,2009-07-04T04:00:00Z,26.5545,-82.1715,1.869,36.44,1111122 
SCCF RECON,ioos:station:SCCF:51:1,2009-07-04T05:00:00Z,26.5545,-82.1715,1.925,36.47,1111122 
SCCF RECON,ioos:station:SCCF:51:1,2009-07-04T06:00:00Z,26.5545,-82.1715,1.93,36.48,1111122 
SCCF RECON,ioos:station:SCCF:51:1,2009-07-04T07:00:00Z,26.5545,-82.1715,1.905,36.43,1111122 
SCCF RECON,ioos:station:SCCF:51:1,2009-07-04T08:00:00Z,26.5545,-82.1715,1.902,36.43,1111122 
SCCF RECON,ioos:station:SCCF:51:1,2009-07-04T09:00:00Z,26.5545,-82.1715,1.921,36.43,1111122 
SCCF RECON,ioos:station:SCCF:51:1,2009-07-04T10:00:00Z,26.5545,-82.1715,1.95,36.43,1111122 
SCCF RECON,ioos:station:SCCF:51:1,2009-07-04T11:00:00Z,26.5545,-82.1715,2.0,36.47,1111122 
SCCF RECON,ioos:station:SCCF:51:1,2009-07-04T12:00:00Z,26.5545,-82.1715,2.047,36.48,1111122 
SCCF RECON,ioos:station:SCCF:51:1,2009-07-04T13:00:00Z,26.5545,-82.1715,2.102,36.48,1111122 
SCCF RECON,ioos:station:SCCF:51:1,2009-07-04T14:00:00Z,26.5545,-82.1715,2.14,36.45,1111122 
SCCF RECON,ioos:station:SCCF:51:1,2009-07-04T15:00:00Z,26.5545,-82.1715,2.157,36.46,1111122 
SCCF RECON,ioos:station:SCCF:51:1,2009-07-04T16:00:00Z,26.5545,-82.1715,2.139,36.45,1111122 
SCCF RECON,ioos:station:SCCF:51:1,2009-07-04T17:00:00Z,26.5545,-82.1715,2.076,36.47,1111122 
SCCF RECON,ioos:station:SCCF:51:1,2009-07-04T18:00:00Z,26.5545,-82.1715,1.976,36.45,1111122 
SCCF RECON,ioos:station:SCCF:51:1,2009-07-04T19:00:00Z,26.5545,-82.1715,1.853,36.45,1111122 
SCCF RECON,ioos:station:SCCF:51:1,2009-07-04T20:00:00Z,26.5545,-82.1715,1.724,36.5,1111122 
SCCF RECON,ioos:station:SCCF:51:1,2009-07-04T21:00:00Z,26.5545,-82.1715,1.602,36.54,1111122 
SCCF RECON,ioos:station:SCCF:51:1,2009-07-04T22:00:00Z,26.5545,-82.1715,1.484,36.55,1111122 
SCCF RECON,ioos:station:SCCF:51:1,2009-07-04T23:00:00Z,26.5545,-82.1715,1.409,36.62,1111122 
SCCF RECON,ioos:station:SCCF:51:1,2009-07-05T00:00:00Z,26.5545,-82.1715,1.413,36.61,1111122 
SCCF RECON,ioos:station:SCCF:51:1,2009-07-05T01:00:00Z,26.5545,-82.1715,1.495,36.61,1111122 
SCCF RECON,ioos:station:SCCF:51:1,2009-07-05T02:00:00Z,26.5545,-82.1715,1.601,36.52,1111122 
SCCF RECON,ioos:station:SCCF:51:1,2009-07-05T03:00:00Z,26.5545,-82.1715,1.71,36.49,1111122 
SCCF RECON,ioos:station:SCCF:51:1,2009-07-05T04:00:00Z,26.5545,-82.1715,1.83,36.49,1111122 
SCCF RECON,ioos:station:SCCF:51:1,2009-07-05T05:00:00Z,26.5545,-82.1715,1.902,36.49,1111122 
SCCF RECON,ioos:station:SCCF:51:1,2009-07-05T06:00:00Z,26.5545,-82.1715,1.939,36.48,1111122 
SCCF RECON,ioos:station:SCCF:51:1,2009-07-05T07:00:00Z,26.5545,-82.1715,1.938,36.47,1111122 
SCCF RECON,ioos:station:SCCF:51:1,2009-07-05T08:00:00Z,26.5545,-82.1715,1.922,36.48,1111122 
SCCF RECON,ioos:station:SCCF:51:1,2009-07-05T09:00:00Z,26.5545,-82.1715,1.917,36.54,1111122 
SCCF RECON,ioos:station:SCCF:51:1,2009-07-05T10:00:00Z,26.5545,-82.1715,1.922,36.56,1111122 
SCCF RECON,ioos:station:SCCF:51:1,2009-07-05T11:00:00Z,26.5545,-82.1715,1.966,36.56,1111122 
SCCF RECON,ioos:station:SCCF:51:1,2009-07-05T12:00:00Z,26.5545,-82.1715,2.023,36.47,1111122 
SCCF RECON,ioos:station:SCCF:51:1,2009-07-05T13:00:00Z,26.5545,-82.1715,2.105,36.49,1111122 
SCCF RECON,ioos:station:SCCF:51:1,2009-07-05T14:00:00Z,26.5545,-82.1715,2.188,36.5,1111122 
SCCF RECON,ioos:station:SCCF:51:1,2009-07-05T15:00:00Z,26.5545,-82.1715,2.26,36.51,1111122 
SCCF RECON,ioos:station:SCCF:51:1,2009-07-05T16:00:00Z,26.5545,-82.1715,2.268,36.5,1111122 
SCCF RECON,ioos:station:SCCF:51:1,2009-07-05T17:00:00Z,26.5545,-82.1715,2.198,36.51,1111122 
SCCF RECON,ioos:station:SCCF:51:1,2009-07-05T18:00:00Z,26.5545,-82.1715,2.091,36.5,1111122 
SCCF RECON,ioos:station:SCCF:51:1,2009-07-05T19:00:00Z,26.5545,-82.1715,1.968,36.54,1111122 
SCCF RECON,ioos:station:SCCF:51:1,2009-07-05T20:00:00Z,26.5545,-82.1715,1.843,36.57,1111122 
SCCF RECON,ioos:station:SCCF:51:1,2009-07-05T21:00:00Z,26.5545,-82.1715,1.717,36.62,1111122 
SCCF RECON,ioos:station:SCCF:51:1,2009-07-05T22:00:00Z,26.5545,-82.1715,1.6,36.59,1111122 
SCCF RECON,ioos:station:SCCF:51:1,2009-07-05T23:00:00Z,26.5545,-82.1715,1.508,36.56,1111122 
SCCF RECON,ioos:station:SCCF:51:1,2009-07-06T00:00:00Z,26.5545,-82.1715,1.458,36.62,1111122 
SCCF RECON,ioos:station:SCCF:51:1,2009-07-06T01:00:00Z,26.5545,-82.1715,1.49,36.61,1111122 
SCCF RECON,ioos:station:SCCF:51:1,2009-07-06T02:00:00Z,26.5545,-82.1715,1.589,36.61,1111122 
SCCF RECON,ioos:station:SCCF:51:1,2009-07-06T03:00:00Z,26.5545,-82.1715,1.71,36.55,1111122 
SCCF RECON,ioos:station:SCCF:51:1,2009-07-06T04:00:00Z,26.5545,-82.1715,1.82,36.52,1111122 
SCCF RECON,ioos:station:SCCF:51:1,2009-07-06T05:00:00Z,26.5545,-82.1715,1.91,36.59,1111122 
SCCF RECON,ioos:station:SCCF:51:1,2009-07-06T06:00:00Z,26.5545,-82.1715,1.96,36.56,1111122 
SCCF RECON,ioos:station:SCCF:51:1,2009-07-06T07:00:00Z,26.5545,-82.1715,1.989,36.51,1111122 
SCCF RECON,ioos:station:SCCF:51:1,2009-07-06T08:00:00Z,26.5545,-82.1715,1.981,36.53,1111122 
SCCF RECON,ioos:station:SCCF:51:1,2009-07-06T09:00:00Z,26.5545,-82.1715,1.979,36.63,1111122 
SCCF RECON,ioos:station:SCCF:51:1,2009-07-06T10:00:00Z,26.5545,-82.1715,1.969,36.62,1111122 
SCCF RECON,ioos:station:SCCF:51:1,2009-07-06T11:00:00Z,26.5545,-82.1715,1.97,36.61,1111122 
SCCF RECON,ioos:station:SCCF:51:1,2009-07-06T12:00:00Z,26.5545,-82.1715,2.006,36.61,1111122 
SCCF RECON,ioos:station:SCCF:51:1,2009-07-06T13:00:00Z,26.5545,-82.1715,2.066,36.6,1111122 
SCCF RECON,ioos:station:SCCF:51:1,2009-07-06T14:00:00Z,26.5545,-82.1715,2.15,36.57,1111122 
SCCF RECON,ioos:station:SCCF:51:1,2009-07-06T15:00:00Z,26.5545,-82.1715,2.231,36.51,1111122 
SCCF RECON,ioos:station:SCCF:51:1,2009-07-06T16:00:00Z,26.5545,-82.1715,2.282,36.5,1111122 
SCCF RECON,ioos:station:SCCF:51:1,2009-07-06T17:00:00Z,26.5545,-82.1715,2.256,36.5,1111122 
SCCF RECON,ioos:station:SCCF:51:1,2009-07-06T18:00:00Z,26.5545,-82.1715,2.176,36.56,1111122 
SCCF RECON,ioos:station:SCCF:51:1,2009-07-06T19:00:00Z,26.5545,-82.1715,2.066,36.54,1111122 
SCCF RECON,ioos:station:SCCF:51:1,2009-07-06T20:00:00Z,26.5545,-82.1715,1.948,36.6,1111122 
SCCF RECON,ioos:station:SCCF:51:1,2009-07-06T21:00:00Z,26.5545,-82.1715,1.826,36.65,1111122 
SCCF RECON,ioos:station:SCCF:51:1,2009-07-06T22:00:00Z,26.5545,-82.1715,1.7,36.67,1111122 
SCCF RECON,ioos:station:SCCF:51:1,2009-07-06T23:00:00Z,26.5545,-82.1715,1.581,36.57,1111122 
SCCF RECON,ioos:station:SCCF:51:1,2009-07-07T00:00:00Z,26.5545,-82.1715,1.491,36.62,1111122 
SCCF RECON,ioos:station:SCCF:51:1,2009-07-07T01:00:00Z,26.5545,-82.1715,1.459,36.71,1111122 
SCCF RECON,ioos:station:SCCF:51:1,2009-07-07T02:00:00Z,26.5545,-82.1715,1.528,36.66,1111122 
SCCF RECON,ioos:station:SCCF:51:1,2009-07-07T03:00:00Z,26.5545,-82.1715,1.63,36.66,1111122 
SCCF RECON,ioos:station:SCCF:51:1,2009-07-07T04:00:00Z,26.5545,-82.1715,1.749,36.54,1111122 
SCCF RECON,ioos:station:SCCF:51:1,2009-07-07T05:00:00Z,26.5545,-82.1715,1.86,36.54,1111122 
SCCF RECON,ioos:station:SCCF:51:1,2009-07-07T06:00:00Z,26.5545,-82.1715,1.928,36.55,1111122 
SCCF RECON,ioos:station:SCCF:51:1,2009-07-07T07:00:00Z,26.5545,-82.1715,1.951,36.59,1111122 
SCCF RECON,ioos:station:SCCF:51:1,2009-07-07T08:00:00Z,26.5545,-82.1715,1.951,36.53,1111122 
SCCF RECON,ioos:station:SCCF:51:1,2009-07-07T09:00:00Z,26.5545,-82.1715,1.938,36.56,1111122 
SCCF RECON,ioos:station:SCCF:51:1,2009-07-07T10:00:00Z,26.5545,-82.1715,1.959,36.56,1111122 
SCCF RECON,ioos:station:SCCF:51:1,2009-07-07T11:00:00Z,26.5545,-82.1715,1.983,36.6,1111122 
SCCF RECON,ioos:station:SCCF:51:1,2009-07-07T12:00:00Z,26.5545,-82.1715,2.007,36.61,1111122 
SCCF RECON,ioos:station:SCCF:51:1,2009-07-07T13:00:00Z,26.5545,-82.1715,2.048,36.57,1111122 
SCCF RECON,ioos:station:SCCF:51:1,2009-07-07T14:00:00Z,26.5545,-82.1715,2.104,36.58,1111122 
SCCF RECON,ioos:station:SCCF:51:1,2009-07-07T15:00:00Z,26.5545,-82.1715,2.188,36.48,1111122 
SCCF RECON,ioos:station:SCCF:51:1,2009-07-07T16:00:00Z,26.5545,-82.1715,2.258,36.49,1111122 
SCCF RECON,ioos:station:SCCF:51:1,2009-07-07T17:00:00Z,26.5545,-82.1715,2.293,36.5,1111122 
SCCF RECON,ioos:station:SCCF:51:1,2009-07-07T18:00:00Z,26.5545,-82.1715,2.251,36.51,1111122 
SCCF RECON,ioos:station:SCCF:51:1,2009-07-07T19:00:00Z,26.5545,-82.1715,2.164,36.54,1111122 
SCCF RECON,ioos:station:SCCF:51:1,2009-07-07T20:00:00Z,26.5545,-82.1715,2.046,36.56,1111122 
SCCF RECON,ioos:station:SCCF:51:1,2009-07-07T21:00:00Z,26.5545,-82.1715,1.917,36.6,1111122 
SCCF RECON,ioos:station:SCCF:51:1,2009-07-07T22:00:00Z,26.5545,-82.1715,1.781,36.68,1111122 
SCCF RECON,ioos:station:SCCF:51:1,2009-07-07T23:00:00Z,26.5545,-82.1715,1.661,36.74,1111122 
SCCF RECON,ioos:station:SCCF:51:1,2009-07-08T00:00:00Z,26.5545,-82.1715,1.563,36.72,1111122 
SCCF RECON,ioos:station:SCCF:51:1,2009-07-08T01:00:00Z,26.5545,-82.1715,1.496,36.7,1111122 
SCCF RECON,ioos:station:SCCF:51:1,2009-07-08T02:00:00Z,26.5545,-82.1715,1.492,36.72,1111122 
SCCF RECON,ioos:station:SCCF:51:1,2009-07-08T03:00:00Z,26.5545,-82.1715,1.571,36.75,1111122 
SCCF RECON,ioos:station:SCCF:51:1,2009-07-08T04:00:00Z,26.5545,-82.1715,1.68,36.71,1111122 
SCCF RECON,ioos:station:SCCF:51:1,2009-07-08T05:00:00Z,26.5545,-82.1715,1.782,36.55,1111122 
SCCF RECON,ioos:station:SCCF:51:1,2009-07-08T06:00:00Z,26.5545,-82.1715,1.879,36.54,1111122 
SCCF RECON,ioos:station:SCCF:51:1,2009-07-08T07:00:00Z,26.5545,-82.1715,1.951,36.58,1111122 
SCCF RECON,ioos:station:SCCF:51:1,2009-07-08T08:00:00Z,26.5545,-82.1715,1.97,36.59,1111122 
SCCF RECON,ioos:station:SCCF:51:1,2009-07-08T09:00:00Z,26.5545,-82.1715,1.955,36.58,1111122 
SCCF RECON,ioos:station:SCCF:51:1,2009-07-08T10:00:00Z,26.5545,-82.1715,1.919,36.61,1111122 
SCCF RECON,ioos:station:SCCF:51:1,2009-07-08T11:00:00Z,26.5545,-82.1715,1.889,36.72,1111122 
SCCF RECON,ioos:station:SCCF:51:1,2009-07-08T12:00:00Z,26.5545,-82.1715,1.911,36.75,1111122 
SCCF RECON,ioos:station:SCCF:51:1,2009-07-08T13:00:00Z,26.5545,-82.1715,1.961,36.71,1111122 
SCCF RECON,ioos:station:SCCF:51:1,2009-07-08T14:00:00Z,26.5545,-82.1715,2.033,36.57,1111122 
SCCF RECON,ioos:station:SCCF:51:1,2009-07-08T15:00:00Z,26.5545,-82.1715,2.116,36.54,1111122 
SCCF RECON,ioos:station:SCCF:51:1,2009-07-08T16:00:00Z,26.5545,-82.1715,2.203,36.53,1111122 
SCCF RECON,ioos:station:SCCF:51:1,2009-07-08T17:00:00Z,26.5545,-82.1715,2.187,36.81,1111122 
SCCF RECON,ioos:station:SCCF:51:1,2009-07-08T18:00:00Z,26.5545,-82.1715,2.219,36.83,1111122 
SCCF RECON,ioos:station:SCCF:51:1,2009-07-08T19:00:00Z,26.5545,-82.1715,2.198,36.84,1111122 
SCCF RECON,ioos:station:SCCF:51:1,2009-07-08T20:00:00Z,26.5545,-82.1715,2.114,36.56,1111122 
SCCF RECON,ioos:station:SCCF:51:1,2009-07-08T21:00:00Z,26.5545,-82.1715,1.993,36.64,1111122 
SCCF RECON,ioos:station:SCCF:51:1,2009-07-08T22:00:00Z,26.5545,-82.1715,1.872,36.66,1111122 
SCCF RECON,ioos:station:SCCF:51:1,2009-07-08T23:00:00Z,26.5545,-82.1715,1.749,36.6,1111122 
SCCF RECON,ioos:station:SCCF:51:1,2009-07-09T00:00:00Z,26.5545,-82.1715,1.635,36.56,1111122 
SCCF RECON,ioos:station:SCCF:51:1,2009-07-09T01:00:00Z,26.5545,-82.1715,1.54,36.54,1111122 
SCCF RECON,ioos:station:SCCF:51:1,2009-07-09T02:00:00Z,26.5545,-82.1715,1.486,36.52,1111122 
SCCF RECON,ioos:station:SCCF:51:1,2009-07-09T03:00:00Z,26.5545,-82.1715,1.537,36.69,1111122 
SCCF RECON,ioos:station:SCCF:51:1,2009-07-09T04:00:00Z,26.5545,-82.1715,1.631,36.8,1111122 
SCCF RECON,ioos:station:SCCF:51:1,2009-07-09T05:00:00Z,26.5545,-82.1715,1.74,36.61,1111122 
SCCF RECON,ioos:station:SCCF:51:1,2009-07-09T06:00:00Z,26.5545,-82.1715,1.865,36.54,1111122 
SCCF RECON,ioos:station:SCCF:51:1,2009-07-09T07:00:00Z,26.5545,-82.1715,1.944,36.58,1111122 
SCCF RECON,ioos:station:SCCF:51:1,2009-07-09T08:00:00Z,26.5545,-82.1715,1.946,36.56,1111122 
SCCF RECON,ioos:station:SCCF:51:1,2009-07-09T09:00:00Z,26.5545,-82.1715,1.908,36.59,1111122 
SCCF RECON,ioos:station:SCCF:51:1,2009-07-09T10:00:00Z,26.5545,-82.1715,1.88,36.66,1111122 
SCCF RECON,ioos:station:SCCF:51:1,2009-07-09T11:00:00Z,26.5545,-82.1715,1.854,36.61,1111122 
SCCF RECON,ioos:station:SCCF:51:1,2009-07-09T12:00:00Z,26.5545,-82.1715,1.861,36.43,1111122 
SCCF RECON,ioos:station:SCCF:51:1,2009-07-09T13:00:00Z,26.5545,-82.1715,1.908,36.44,1111122 
SCCF RECON,ioos:station:SCCF:51:1,2009-07-09T14:00:00Z,26.5545,-82.1715,1.964,36.41,1111122 
SCCF RECON,ioos:station:SCCF:51:1,2009-07-09T15:00:00Z,26.5545,-82.1715,2.04,36.45,1111122 
SCCF RECON,ioos:station:SCCF:51:1,2009-07-09T20:00:00Z,26.5545,-82.1715,2.14,36.87,1111122 
SCCF RECON,ioos:station:SCCF:51:1,2009-07-09T21:00:00Z,26.5545,-82.1715,2.058,36.83,1111122 
SCCF RECON,ioos:station:SCCF:51:1,2009-07-09T22:00:00Z,26.5545,-82.1715,1.959,36.7,1111122 
SCCF RECON,ioos:station:SCCF:51:1,2009-07-09T23:00:00Z,26.5545,-82.1715,1.856,36.51,1111122 
SCCF RECON,ioos:station:SCCF:51:1,2009-07-10T00:00:00Z,26.5545,-82.1715,1.711,35.88,1111122 
SCCF RECON,ioos:station:SCCF:51:1,2009-07-10T01:00:00Z,26.5545,-82.1715,1.599,35.59,1111122 
SCCF RECON,ioos:station:SCCF:51:1,2009-07-10T02:00:00Z,26.5545,-82.1715,1.52,35.52,1111122 
SCCF RECON,ioos:station:SCCF:51:1,2009-07-10T03:00:00Z,26.5545,-82.1715,1.524,35.82,1111122 
SCCF RECON,ioos:station:SCCF:51:1,2009-07-10T04:00:00Z,26.5545,-82.1715,1.6,36.32,1111122 
SCCF RECON,ioos:station:SCCF:51:1,2009-07-10T05:00:00Z,26.5545,-82.1715,1.715,36.66,1111122 
SCCF RECON,ioos:station:SCCF:51:1,2009-07-10T06:00:00Z,26.5545,-82.1715,1.84,36.8,1111122 
SCCF RECON,ioos:station:SCCF:51:1,2009-07-10T07:00:00Z,26.5545,-82.1715,1.93,36.52,1111122 
SCCF RECON,ioos:station:SCCF:51:1,2009-07-10T08:00:00Z,26.5545,-82.1715,1.97,36.58,1111122 
SCCF RECON,ioos:station:SCCF:51:1,2009-07-10T09:00:00Z,26.5545,-82.1715,1.949,36.24,1111122 
SCCF RECON,ioos:station:SCCF:51:1,2009-07-10T10:00:00Z,26.5545,-82.1715,1.905,35.95,1111122 
SCCF RECON,ioos:station:SCCF:51:1,2009-07-10T11:00:00Z,26.5545,-82.1715,1.856,35.76,1111122 
SCCF RECON,ioos:station:SCCF:51:1,2009-07-10T12:00:00Z,26.5545,-82.1715,1.836,35.72,1111122 
SCCF RECON,ioos:station:SCCF:51:1,2009-07-10T13:00:00Z,26.5545,-82.1715,1.83,35.82,1111122 
SCCF RECON,ioos:station:SCCF:51:1,2009-07-10T14:00:00Z,26.5545,-82.1715,1.887,35.75,1111122 
SCCF RECON,ioos:station:SCCF:51:1,2009-07-10T15:00:00Z,26.5545,-82.1715,1.949,35.51,1111122 
SCCF RECON,ioos:station:SCCF:51:1,2009-07-10T16:00:00Z,26.5545,-82.1715,2.008,36.58,1111122 
SCCF RECON,ioos:station:SCCF:51:1,2009-07-10T17:00:00Z,26.5545,-82.1715,2.099,36.78,1111122 
SCCF RECON,ioos:station:SCCF:51:1,2009-07-10T18:00:00Z,26.5545,-82.1715,2.155,36.64,1111122 
SCCF RECON,ioos:station:SCCF:51:1,2009-07-10T19:00:00Z,26.5545,-82.1715,2.168,36.73,1111122 
SCCF RECON,ioos:station:SCCF:51:1,2009-07-10T20:00:00Z,26.5545,-82.1715,2.129,36.71,1111122 
SCCF RECON,ioos:station:SCCF:51:1,2009-07-10T21:00:00Z,26.5545,-82.1715,2.07,36.35,1111122 
SCCF RECON,ioos:station:SCCF:51:1,2009-07-10T22:00:00Z,26.5545,-82.1715,1.985,36.16,1111122 
SCCF RECON,ioos:station:SCCF:51:1,2009-07-10T23:00:00Z,26.5545,-82.1715,1.89,35.75,1111122 
SCCF RECON,ioos:station:SCCF:51:1,2009-07-11T00:00:00Z,26.5545,-82.1715,1.78,35.52,1111122 
SCCF RECON,ioos:station:SCCF:51:1,2009-07-11T01:00:00Z,26.5545,-82.1715,1.68,36.28,1111122 
SCCF RECON,ioos:station:SCCF:51:1,2009-07-11T02:00:00Z,26.5545,-82.1715,1.6,36.31,1111122 
SCCF RECON,ioos:station:SCCF:51:1,2009-07-11T03:00:00Z,26.5545,-82.1715,1.558,35.75,1111122 
SCCF RECON,ioos:station:SCCF:51:1,2009-07-11T04:00:00Z,26.5545,-82.1715,1.599,35.08,1111122 
SCCF RECON,ioos:station:SCCF:51:1,2009-07-11T05:00:00Z,26.5545,-82.1715,1.688,34.88,1111122 
SCCF RECON,ioos:station:SCCF:51:1,2009-07-11T06:00:00Z,26.5545,-82.1715,1.814,36.09,1111122 
SCCF RECON,ioos:station:SCCF:51:1,2009-07-11T07:00:00Z,26.5545,-82.1715,1.93,36.14,1111122 
SCCF RECON,ioos:station:SCCF:51:1,2009-07-11T08:00:00Z,26.5545,-82.1715,1.991,35.97,1111122 
SCCF RECON,ioos:station:SCCF:51:1,2009-07-11T09:00:00Z,26.5545,-82.1715,2.0,35.49,1111122 
SCCF RECON,ioos:station:SCCF:51:1,2009-07-11T10:00:00Z,26.5545,-82.1715,1.961,35.21,1111122 
SCCF RECON,ioos:station:SCCF:51:1,2009-07-11T11:00:00Z,26.5545,-82.1715,1.925,35.1,1111122 
SCCF RECON,ioos:station:SCCF:51:1,2009-07-11T12:00:00Z,26.5545,-82.1715,1.871,34.47,1111122 
SCCF RECON,ioos:station:SCCF:51:1,2009-07-11T13:00:00Z,26.5545,-82.1715,1.817,34.25,1111122 
SCCF RECON,ioos:station:SCCF:51:1,2009-07-11T14:00:00Z,26.5545,-82.1715,1.788,34.32,1111122 
SCCF RECON,ioos:station:SCCF:51:1,2009-07-11T15:00:00Z,26.5545,-82.1715,1.845,34.24,1111122 
SCCF RECON,ioos:station:SCCF:51:1,2009-07-11T16:00:00Z,26.5545,-82.1715,1.937,34.77,1111122 
SCCF RECON,ioos:station:SCCF:51:1,2009-07-11T17:00:00Z,26.5545,-82.1715,2.039,36.3,1111122 
SCCF RECON,ioos:station:SCCF:51:1,2009-07-11T18:00:00Z,26.5545,-82.1715,2.134,36.44,1111122 
SCCF RECON,ioos:station:SCCF:51:1,2009-07-11T19:00:00Z,26.5545,-82.1715,2.158,36.34,1111122 
SCCF RECON,ioos:station:SCCF:51:1,2009-07-11T20:00:00Z,26.5545,-82.1715,2.154,35.96,1111122 